Regional Weather Roundup
Issued by NWS Nashville, TN

Home | Current Version | Previous Version | Text Only | Print | Product List | Glossary On
Versions: 1 2 3 4 5 6 7 8 9 10 11 12 13 14 15 16 17 18 19 20 21 22 23 24 25 26 27 28 29 30 31 32 33 34 35 36 37 38 39 40 41 42 43 44 45 46 47 48 49 50
000
ASUS44 KOHX 302115
RWROHX
MIDDLE TENNESSEE HOURLY WEATHER ROUNDUP
NATIONAL WEATHER SERVICE NASHVILLE TN
400 PM CDT TUE SEP 30 2014

NOTE: "FAIR" INDICATES FEW OR NO CLOUDS BELOW 12,000 FEET WITH
NO SIGNIFICANT WEATHER AND/OR OBSTRUCTIONS TO VISIBILITY.

* THESE REPORTS ARE NOT UNDER NWS QUALITY CONTROL AND MAY NOT
  REPORT WEATHER SUCH AS PRECIPITATION AND FOG.


TNZ005>011-023>034-057-059-062>066-078-080-302200
...NORTHERN MIDDLE TENNESSEE...

CITY           SKY/WX    TMP DP  RH WIND       PRES   REMARKS
CLARKSVILLE    MOSUNNY   85  52  32 CALM      29.88F
CROSSVILLE     SUNNY     78  49  35 N8        29.95F
GALLATIN         N/A     85  51  30 N3        29.90F
DICKSON        SUNNY     82  48  30 CALM      29.90F
LEBANON        SUNNY     85  48  27 CALM      29.88F
NASHVILLE      MOSUNNY   87  49  26 NE8       29.89F
WEST NASHVILLE   N/A     86  46  25 VRB6      29.88F
PORTLAND       SUNNY     82  48  30 CALM      29.90F
SMYRNA         SUNNY     87  51  28 NW6       29.90F
SPARTA         SUNNY     82  54  36 N5        29.91S
$$
TNZ056-058-060-061-075>077-079-093>097-302200
...SOUTHERN MIDDLE TENNESSEE...

CITY           SKY/WX    TMP DP  RH WIND       PRES   REMARKS
COLUMBIA       MOSUNNY   88  55  33 N7        29.88F
FAYETTEVILLE   CLOUDY    81  55  41 E5        29.91S
LEWISBURG      SUNNY     86  56  35 CALM      29.89F
MCMINNVILLE    SUNNY     82  55  39 W6        29.91F
MURFREESBORO   SUNNY     85  42  22 VRB6      29.88F
SHELBYVILLE    SUNNY     84  55  37 N3        29.90F
TULLAHOMA      PTSUNNY   82  55  39 NE7       29.92S
WINCHESTER     MOSUNNY   82  57  42 W3        29.90F
$$


...KEY TO REMARKS...
VSB - VISIBILITY IN MILES
WCI - WIND CHILL INDEX
HX  - HEAT INDEX




USA.gov is the U.S. government's official web portal to all federal, state and local government web resources and services.